41P/Tuttle-Giacobini-Kresak (2017)

Japanese version
Home page
Updated on July 8, 2017

---------------------------------------------------------------------

* Profile

* Pictures

* Orbital Elements

Epoch 2017 Mar. 28.0 TT = JDT 2457840.5
T 2017 Apr. 12.75208 TT                                 MPCW
q   1.0450402            (2000.0)            P               Q
n   0.18194135     Peri.   62.15657     -0.91177361     +0.39813573
a   3.0844787      Node   141.06804     -0.41003692     -0.86861579
e   0.6611939      Incl.    9.22884     -0.02320782     -0.29494839
P   5.42
From 3151 observations 2006 Feb. 24-2017 Apr. 20, mean residual 0".7.
     Nongravitational parameters A1 = +0.20, A2 = -0.2179.

* Finding Charts

* Magnitudes Graph

        m1 = 10.0 + 5 log d + 33.0 log r

---------------------------------------------------------------------

The orbital elements are published on M.P.E.C. 2017-H20.
The charts are made with StellaNavigator Ver.10 (AstroArts).
The magnitudes graphs are made with Comet for Windows.

---------------------------------------------------------------------

Copyright(C) Seiichi Yoshida (comet@aerith.net). All rights reserved.